Location: B?jaj?g
(11.7167°N, 92.6667°E)
Time: 14:35:07
(UTC+00:00)

SWARM C - Pass Details

Date: 18 September 2020
Orbit: 430 x 433 km, 87.3° (Epoch: 27 October)

Event Time Altitude Azimuth Distance (km) Brightness Sun altitude
Rises 12:18:46 0° 2° (N) 2,395 8.3 -8.4°
Reaches altitude 10° 12:20:48 10° 3° (N) 1,528 7.3 -8.8°
Maximum altitude 12:24:06 83° 89° (E) 438 4.4 -9.7°
Drops below altitude 10° 12:27:24 10° 179° (S) 1,526 7.2 -10.5°
Sets 12:29:26 0° 180° (S) 2,392 8.2 -11.0°
